Weather History for KOSC - July, 2013

Change the Weather History Date:

Wednesday, July 31, 2013

  Actual Average Record
Temperature  
Mean Temperature 63 °F -  
Max Temperature 72 °F 77 °F 98 °F (2006)
Min Temperature 54 °F 57 °F 52 °F (2014)
Degree Days  
Heating Degree Days 2    
Growing Degree Days 13 (Base 50)    
Moisture  
Dew Point 60 °F    
Average Humidity 87    
Maximum Humidity 98    
Minimum Humidity 64    
Precipitation  
Precipitation 0.00 in - - ()
Sea Level Pressure  
Sea Level Pressure 30.02 in    
Wind  
Wind Speed 3 mph (SSW)    
Max Wind Speed 17 mph    
Max Gust Speed 24 mph    
Visibility 10 miles    
Events Rain    
Averages and records for this station are not official NWS values.
T = Trace of Precipitation, MM = Missing Value Source: NWS Daily Summary

Daily Weather History Graph

Daily Weather History Graph

Search for Another Location

Airport or City:

Trip Planner

Search our weather history database for the weather conditions in past years. The results will help you decide how hot, cold, wet, or windy it might be!

Date:

Astronomy

Jul. 31, 2013 Rise Set
Actual Time 6:19 AM EDT 8:59 PM EDT
Civil Twilight 5:46 AM EDT 9:32 PM EDT
Nautical Twilight 5:04 AM EDT 10:14 PM EDT
Astronomical Twilight 4:15 AM EDT 11:02 PM EDT
Moon 1:14 AM EDT (7/31) 4:15 PM EDT (7/31)
Length of Visible Light 15h 46m
Length of Day
14h 39m
Waning Crescent, 32% of the Moon is Illuminated
Jul 31
Waning Crescent
Aug 6
New
Aug 14
First Quarter
Aug 20
Full
Aug 28
Last Quarter

Hourly Weather History & Observations

Time (EDT) Temp. Dew Point Humidity Pressure Visibility Wind Dir Wind Speed Gust Speed Precip Events Conditions
12:14 AM 56.7 °F 54.1 °F 91% 30.13 in 10.0 mi Calm Calm - N/A   Clear
12:34 AM 56.5 °F 53.8 °F 91% 30.13 in 10.0 mi Calm Calm - N/A   Clear
12:53 AM 55.4 °F 52.5 °F 90% 30.13 in 10.0 mi Calm Calm - N/A   Clear
1:14 AM 55.6 °F 53.1 °F 91% 30.13 in 10.0 mi Calm Calm - N/A   Clear
1:34 AM 54.7 °F 52.5 °F 92% 30.12 in 10.0 mi Calm Calm - N/A   Clear
1:53 AM 54.7 °F 53.1 °F 94% 30.12 in 10.0 mi Calm Calm - N/A   Clear
2:14 AM 54.3 °F 52.3 °F 93% 30.12 in 10.0 mi Calm Calm - N/A   Scattered Clouds
2:54 AM 54.7 °F 53.6 °F 96% 30.11 in 10.0 mi Calm Calm - N/A   Scattered Clouds
3:14 AM 55.4 °F 54.0 °F 95% 30.11 in 10.0 mi Calm Calm - N/A   Mostly Cloudy
3:34 AM 55.4 °F 54.0 °F 95% 30.10 in 10.0 mi Calm Calm - N/A   Overcast
3:53 AM 55.8 °F 54.3 °F 95% 30.10 in 10.0 mi Calm Calm - N/A   Scattered Clouds
4:14 AM 55.8 °F 54.5 °F 96% 30.10 in 10.0 mi Calm Calm - N/A   Clear
4:34 AM 56.3 °F 55.0 °F 96% 30.10 in 10.0 mi Calm Calm - N/A   Clear
4:53 AM 56.7 °F 55.4 °F 96% 30.09 in 10.0 mi Calm Calm - N/A   Mostly Cloudy
5:14 AM 57.4 °F 55.8 °F 94% 30.09 in 10.0 mi Calm Calm - N/A   Overcast
5:34 AM 56.7 °F 55.4 °F 96% 30.09 in 10.0 mi Calm Calm - N/A   Scattered Clouds
5:54 AM 57.2 °F 55.8 °F 95% 30.08 in 10.0 mi Calm Calm - N/A   Scattered Clouds
6:14 AM 56.7 °F 55.4 °F 96% 30.08 in 10.0 mi Calm Calm - N/A   Mostly Cloudy
6:34 AM 56.8 °F 55.6 °F 96% 30.09 in 10.0 mi Calm Calm - N/A   Overcast
6:54 AM 57.2 °F 55.8 °F 95% 30.09 in 10.0 mi Calm Calm - N/A   Overcast
7:14 AM 57.7 °F 56.5 °F 96% 30.10 in 10.0 mi Calm Calm - N/A Rain Light Rain
7:34 AM 58.6 °F 57.6 °F 96% 30.09 in 10.0 mi Calm Calm - N/A   Light Drizzle
7:54 AM 59.4 °F 58.3 °F 96% 30.09 in 10.0 mi Calm Calm - N/A Rain Light Rain
8:14 AM 61.2 °F 59.9 °F 96% 30.08 in 10.0 mi Calm Calm - N/A   Mostly Cloudy
8:34 AM 62.1 °F 60.4 °F 94% 30.07 in 10.0 mi Calm Calm - N/A   Mostly Cloudy
8:54 AM 62.6 °F 61.2 °F 95% 30.08 in 10.0 mi SW 3.5 mph - N/A   Overcast
9:14 AM 63.5 °F 61.7 °F 94% 30.08 in 10.0 mi West 3.5 mph - N/A   Overcast
9:34 AM 63.3 °F 61.7 °F 94% 30.09 in 10.0 mi West 3.5 mph - N/A   Overcast
9:54 AM 64.4 °F 61.7 °F 91% 30.08 in 10.0 mi West 4.6 mph - N/A   Overcast
10:14 AM 65.1 °F 61.7 °F 89% 30.07 in 10.0 mi Calm Calm - N/A   Overcast
10:34 AM 65.5 °F 61.7 °F 88% 30.07 in 10.0 mi Calm Calm - N/A   Overcast
10:54 AM 65.3 °F 61.7 °F 88% 30.05 in 10.0 mi Calm Calm - N/A   Overcast
11:14 AM 67.3 °F 61.7 °F 82% 30.06 in 10.0 mi Calm Calm - N/A   Overcast
11:34 AM 67.6 °F 61.7 °F 81% 30.06 in 10.0 mi SSW 4.6 mph - N/A   Overcast
11:54 AM 67.3 °F 61.7 °F 82% 30.06 in 10.0 mi SW 5.8 mph - N/A   Overcast
12:14 PM 67.5 °F 62.1 °F 83% 30.05 in 10.0 mi SSW 5.8 mph - N/A   Overcast
12:33 PM 69.8 °F 61.7 °F 75% 30.04 in 10.0 mi SSW 6.9 mph - N/A   Overcast
12:54 PM 72.9 °F 60.1 °F 64% 30.04 in 10.0 mi SSW 10.4 mph - N/A   Overcast
1:14 PM 72.7 °F 59.7 °F 64% 30.03 in 10.0 mi SSW 13.8 mph - N/A   Overcast
1:33 PM 72.7 °F 59.7 °F 64% 30.02 in 10.0 mi SSW 8.1 mph - N/A   Overcast
1:54 PM 72.0 °F 59.5 °F 65% 30.01 in 10.0 mi SSW 13.8 mph 17.3 mph N/A   Overcast
2:14 PM 71.2 °F 60.8 °F 69% 30.01 in 10.0 mi SSW 10.4 mph 17.3 mph N/A   Overcast
2:33 PM 72.3 °F 61.7 °F 69% 30.00 in 10.0 mi SSW 13.8 mph 18.4 mph N/A   Overcast
2:54 PM 70.7 °F 61.2 °F 72% 30.00 in 10.0 mi SSW 10.4 mph - N/A   Overcast
3:14 PM 69.8 °F 60.8 °F 73% 30.00 in 10.0 mi South 8.1 mph - N/A   Overcast
3:33 PM 70.3 °F 61.3 °F 73% 29.99 in 10.0 mi SSW 8.1 mph - N/A   Overcast
3:54 PM 70.2 °F 61.7 °F 74% 29.99 in 10.0 mi SSW 9.2 mph - N/A   Overcast
4:14 PM 70.0 °F 62.1 °F 76% 29.98 in 10.0 mi South 10.4 mph - N/A   Overcast
4:34 PM 69.8 °F 62.4 °F 77% 29.97 in 10.0 mi South 8.1 mph - N/A   Overcast
4:54 PM 69.1 °F 62.6 °F 80% 29.96 in 10.0 mi SSW 6.9 mph - N/A   Overcast
5:14 PM 69.6 °F 62.6 °F 78% 29.95 in 10.0 mi South 9.2 mph - N/A   Overcast
5:34 PM 69.8 °F 62.4 °F 77% 29.95 in 10.0 mi SSW 8.1 mph - N/A   Overcast
5:54 PM 70.7 °F 61.7 °F 73% 29.94 in 10.0 mi South 9.2 mph - N/A   Overcast
6:14 PM 70.0 °F 62.2 °F 76% 29.95 in 10.0 mi SSW 10.4 mph - N/A   Overcast
6:34 PM 69.8 °F 62.6 °F 78% 29.94 in 10.0 mi South 10.4 mph - N/A   Overcast
6:54 PM 68.9 °F 62.8 °F 81% 29.94 in 10.0 mi SSW 6.9 mph - N/A   Overcast
7:14 PM 68.5 °F 62.8 °F 82% 29.94 in 10.0 mi SSW 8.1 mph - N/A   Overcast
7:34 PM 68.0 °F 62.4 °F 82% 29.94 in 10.0 mi South 6.9 mph - N/A   Overcast
7:54 PM 67.6 °F 63.1 °F 85% 29.94 in 10.0 mi SSW 6.9 mph - N/A   Overcast
8:14 PM 67.3 °F 63.5 °F 88% 29.94 in 10.0 mi SSW 6.9 mph - N/A   Overcast
8:34 PM 67.1 °F 63.7 °F 89% 29.93 in 10.0 mi SSW 6.9 mph - N/A   Overcast
8:54 PM 66.7 °F 63.7 °F 90% 29.93 in 10.0 mi SSW 5.8 mph - N/A   Overcast
9:14 PM 66.2 °F 63.7 °F 92% 29.91 in 10.0 mi SSW 5.8 mph - N/A   Scattered Clouds
9:34 PM 65.7 °F 63.5 °F 93% 29.91 in 10.0 mi SSW 4.6 mph - N/A   Overcast
9:54 PM 65.3 °F 63.9 °F 95% 29.90 in 7.0 mi South 3.5 mph - N/A Rain Light Rain
10:14 PM 64.9 °F 63.7 °F 96% 29.90 in 7.0 mi Calm Calm - N/A   Scattered Clouds
10:34 PM 64.2 °F 63.1 °F 96% 29.91 in 4.0 mi WSW 5.8 mph - N/A   Scattered Clouds
10:54 PM 64.6 °F 63.7 °F 97% 29.90 in 5.0 mi Calm Calm - N/A   Mostly Cloudy
11:13 PM 64.4 °F 63.5 °F 97% 29.89 in 4.0 mi Calm Calm - N/A   Scattered Clouds
11:34 PM 64.2 °F 63.3 °F 97% 29.89 in 4.0 mi Calm Calm - N/A Rain Light Rain
11:54 PM 64.0 °F 63.5 °F 98% 29.90 in 3.0 mi NNW 17.3 mph 24.2 mph N/A Rain Light Rain